When you browse on this site, cookies collect data to enhance your experience and personalize the content and advertising you see.
Visit our Privacy Policy to learn more. By continuing to use the site, you agree to this use of cookies and data.
  • In Portugal
  • List of Countries
  • For 7 days
  • Water Temperature
  • Weather Map
  • Weather Widgets
  • user-avatar
    Login

    Hourly Weather Trypolis

    Today, 8 April, Wednesday

    Time Temperature Precipitation Wind Pressure Humidity
    00:00 +15°C° 0 mm 4 mps 767 mmHg 68%
    01:00 +16°C° 0 mm 3 mps 767 mmHg 69%
    02:00 +14°C° 0 mm 3 mps 766 mmHg 70%
    03:00 +14°C° 0 mm 3 mps 766 mmHg 71%
    04:00 +14°C° 0 mm 3 mps 766 mmHg 72%
    05:00 +14°C° 0 mm 3 mps 766 mmHg 70%
    06:00 +14°C° 0 mm 3 mps 766 mmHg 69%
    07:00 +16°C° 0 mm 3 mps 766 mmHg 68%
    08:00 +17°C° 0 mm 3 mps 766 mmHg 63%
    09:00 +18°C° 0 mm 3 mps 767 mmHg 57%
    10:00 +19°C° 0 mm 3 mps 767 mmHg 51%
    11:00 +19°C° 0 mm 3 mps 766 mmHg 49%
    12:00 +20°C° 0 mm 4 mps 766 mmHg 46%
    13:00 +20°C° 0 mm 4 mps 766 mmHg 44%
    14:00 +20°C° 0 mm 4 mps 766 mmHg 46%
    15:00 +19°C° 0 mm 4 mps 765 mmHg 48%
    16:00 +19°C° 0 mm 5 mps 765 mmHg 51%
    17:00 +17°C° 0 mm 5 mps 765 mmHg 52%
    18:00 +17°C° 0 mm 5 mps 765 mmHg 54%
    19:00 +16°C° 0 mm 5 mps 765 mmHg 55%
    20:00 +17°C° 0 mm 4 mps 766 mmHg 56%
    21:00 +15°C° 0 mm 4 mps 766 mmHg 57%
    22:00 +15°C° 0 mm 4 mps 766 mmHg 57%
    23:00 +16°C° 0 mm 3 mps 766 mmHg 59%

    Tomorrow, 9 April, Thursday

    Time Temperature Precipitation Wind Pressure Humidity
    00:00 +16°C° 0 mm 3 mps 766 mmHg 61%
    01:00 +15°C° 0 mm 2 mps 766 mmHg 62%
    02:00 +15°C° 0 mm 2 mps 765 mmHg 64%
    03:00 +15°C° 0 mm 2 mps 765 mmHg 66%
    04:00 +14°C° 0 mm 2 mps 765 mmHg 68%
    05:00 +14°C° 0 mm 2 mps 765 mmHg 66%
    06:00 +15°C° 0 mm 2 mps 765 mmHg 64%
    07:00 +15°C° 0 mm 2 mps 765 mmHg 62%
    08:00 +16°C° 0 mm 2 mps 766 mmHg 57%
    09:00 +17°C° 0 mm 3 mps 766 mmHg 51%
    10:00 +18°C° 0 mm 3 mps 766 mmHg 45%
    11:00 +19°C° 0 mm 4 mps 766 mmHg 46%
    12:00 +20°C° 0 mm 5 mps 766 mmHg 46%
    13:00 +20°C° 0 mm 5 mps 766 mmHg 46%
    14:00 +20°C° 0 mm 6 mps 765 mmHg 46%
    15:00 +20°C° 0 mm 6 mps 765 mmHg 47%
    16:00 +18°C° 0 mm 7 mps 765 mmHg 47%
    17:00 +17°C° 0 mm 7 mps 765 mmHg 49%
    18:00 +17°C° 0 mm 7 mps 765 mmHg 51%
    19:00 +16°C° 0 mm 7 mps 765 mmHg 52%
    20:00 +16°C° 0 mm 6 mps 766 mmHg 54%
    21:00 +15°C° 0 mm 6 mps 766 mmHg 55%
    22:00 +15°C° 0 mm 6 mps 766 mmHg 56%
    23:00 +15°C° 0 mm 5 mps 766 mmHg 57%

    Day after tomorrow, 10 April, Friday

    Time Temperature Precipitation Wind Pressure Humidity
    00:00 +14°C° 0 mm 4 mps 766 mmHg 59%
    01:00 +14°C° 0 mm 4 mps 766 mmHg 60%
    02:00 +13°C° 0 mm 4 mps 765 mmHg 60%
    03:00 +13°C° 0 mm 4 mps 765 mmHg 60%
    04:00 +13°C° 0 mm 4 mps 765 mmHg 61%
    05:00 +13°C° 0 mm 4 mps 765 mmHg 59%
    06:00 +13°C° 0 mm 4 mps 766 mmHg 57%
    07:00 +14°C° 0 mm 4 mps 766 mmHg 55%
    08:00 +15°C° 0 mm 4 mps 766 mmHg 47%
    09:00 +18°C° 0 mm 3 mps 766 mmHg 38%
    10:00 +20°C° 0 mm 3 mps 766 mmHg 30%
    11:00 +21°C° 0 mm 4 mps 766 mmHg 29%
    12:00 +21°C° 0 mm 4 mps 766 mmHg 29%
    13:00 +22°C° 0 mm 5 mps 766 mmHg 28%
    14:00 +22°C° 0 mm 6 mps 765 mmHg 33%
    15:00 +21°C° 0 mm 6 mps 765 mmHg 38%
    16:00 +20°C° 0 mm 7 mps 764 mmHg 42%
    17:00 +18°C° 0 mm 7 mps 764 mmHg 45%
    18:00 +17°C° 0 mm 7 mps 764 mmHg 48%
    19:00 +16°C° 0 mm 7 mps 764 mmHg 51%
    20:00 +16°C° 0 mm 7 mps 765 mmHg 52%
    21:00 +16°C° 0 mm 7 mps 765 mmHg 53%
    22:00 +16°C° 0 mm 6 mps 765 mmHg 53%
    23:00 +16°C° 0 mm 6 mps 765 mmHg 52%

    11 April, Saturday

    Time Temperature Precipitation Wind Pressure Humidity
    00:00 +15°C° 0 mm 5 mps 765 mmHg 51%
    01:00 +15°C° 0 mm 5 mps 765 mmHg 50%
    02:00 +15°C° 0 mm 5 mps 765 mmHg 51%
    03:00 +15°C° 0 mm 5 mps 765 mmHg 52%
    04:00 +14°C° 0 mm 5 mps 765 mmHg 52%
    05:00 +14°C° 0 mm 5 mps 765 mmHg 52%
    06:00 +15°C° 0 mm 5 mps 765 mmHg 52%
    07:00 +15°C° 0 mm 5 mps 765 mmHg 51%
    08:00 +17°C° 0 mm 5 mps 765 mmHg 45%
    09:00 +19°C° 0 mm 5 mps 765 mmHg 39%
    10:00 +21°C° 0 mm 5 mps 765 mmHg 33%
    11:00 +22°C° 0 mm 5 mps 765 mmHg 31%
    12:00 +23°C° 0 mm 6 mps 765 mmHg 29%
    13:00 +24°C° 0 mm 6 mps 765 mmHg 27%
    14:00 +23°C° 0 mm 7 mps 764 mmHg 33%
    15:00 +22°C° 0 mm 8 mps 764 mmHg 39%
    16:00 +21°C° 0 mm 9 mps 763 mmHg 45%
    17:00 +19°C° 0 mm 9 mps 763 mmHg 48%
    18:00 +18°C° 0 mm 9 mps 763 mmHg 51%
    19:00 +17°C° 0 mm 9 mps 763 mmHg 55%
    20:00 +17°C° 0 mm 9 mps 764 mmHg 54%
    21:00 +17°C° 0 mm 8 mps 764 mmHg 54%
    22:00 +16°C° 0 mm 8 mps 765 mmHg 54%
    23:00 +16°C° 0 mm 7 mps 765 mmHg 55%

    12 April, Sunday

    Time Temperature Precipitation Wind Pressure Humidity
    00:00 +16°C° 0 mm 7 mps 765 mmHg 55%
    01:00 +16°C° 0 mm 6 mps 764 mmHg 56%
    02:00 +15°C° 0 mm 6 mps 764 mmHg 57%
    03:00 +15°C° 0 mm 6 mps 764 mmHg 59%
    04:00 +15°C° 0 mm 6 mps 764 mmHg 60%
    05:00 +15°C° 0 mm 6 mps 764 mmHg 59%
    06:00 +15°C° 0 mm 6 mps 764 mmHg 58%
    07:00 +15°C° 0 mm 6 mps 765 mmHg 57%
    08:00 +17°C° 0 mm 6 mps 765 mmHg 49%
    09:00 +20°C° 0 mm 5 mps 765 mmHg 41%
    10:00 +22°C° 0 mm 5 mps 764 mmHg 33%
    11:00 +24°C° 0 mm 6 mps 764 mmHg 30%
    12:00 +26°C° 0 mm 6 mps 764 mmHg 28%
    13:00 +27°C° 0 mm 6 mps 763 mmHg 26%
    14:00 +27°C° 0 mm 7 mps 763 mmHg 28%
    15:00 +27°C° 0 mm 8 mps 762 mmHg 30%
    16:00 +26°C° 0 mm 9 mps 762 mmHg 32%
    17:00 +24°C° 0 mm 9 mps 762 mmHg 37%
    18:00 +22°C° 0 mm 10 mps 761 mmHg 41%
    19:00 +21°C° 0 mm 10 mps 761 mmHg 46%
    20:00 +19°C° 0 mm 9 mps 762 mmHg 44%
    21:00 +20°C° 0 mm 8 mps 762 mmHg 43%
    22:00 +20°C° 0 mm 7 mps 762 mmHg 41%
    23:00 +20°C° 0 mm 7 mps 762 mmHg 42%

    13 April, Monday

    Time Temperature Precipitation Wind Pressure Humidity
    00:00 +19°C° 0 mm 6 mps 762 mmHg 42%
    01:00 +19°C° 0 mm 6 mps 762 mmHg 42%
    02:00 +17°C° 0 mm 5 mps 761 mmHg 44%
    03:00 +18°C° 0 mm 4 mps 761 mmHg 45%
    04:00 +18°C° 0 mm 4 mps 761 mmHg 46%
    05:00 +18°C° 0 mm 4 mps 761 mmHg 44%
    06:00 +19°C° 0 mm 4 mps 761 mmHg 43%
    07:00 +19°C° 0 mm 3 mps 761 mmHg 42%
    08:00 +22°C° 0 mm 4 mps 761 mmHg 36%
    09:00 +25°C° 0 mm 4 mps 761 mmHg 30%
    10:00 +27°C° 0 mm 5 mps 760 mmHg 24%
    11:00 +29°C° 0 mm 5 mps 760 mmHg 22%
    12:00 +30°C° 0 mm 5 mps 760 mmHg 20%
    13:00 +32°C° 0 mm 5 mps 760 mmHg 18%
    14:00 +32°C° 0 mm 5 mps 759 mmHg 19%
    15:00 +33°C° 0 mm 6 mps 759 mmHg 20%
    16:00 +33°C° 0 mm 6 mps 758 mmHg 21%
    17:00 +30°C° 0 mm 6 mps 758 mmHg 25%
    18:00 +29°C° 0 mm 6 mps 758 mmHg 29%
    19:00 +28°C° 0 mm 7 mps 759 mmHg 33%
    20:00 +27°C° 0 mm 7 mps 759 mmHg 31%
    21:00 +27°C° 0 mm 8 mps 759 mmHg 30%
    22:00 +27°C° 0 mm 8 mps 759 mmHg 29%
    23:00 +26°C° 0 mm 8 mps 759 mmHg 30%
    Show more